CW9648 Weather Reports


Display with metric or nautical units.
time (UTC)temp
F
wind
direction
speed
MPH
gust
MPH
rain 1hr
in
rain 24hr
in
rain mn
in
humidity
%
barometer
mb
20260905161003 87 137 1.0 3.0 0.00 0.00 0.00 73 1015.8
20260905160504 87 68 1.0 2.0 0.00 0.00 0.00 73 1015.8
20260905160024 87 337 2.0 5.0 0.00 0.00 0.00 73 1015.9
20260905155525 86 349 2.0 5.0 0.00 0.00 0.00 73 1015.9
20260905155003 86 332 2.0 4.0 0.00 0.00 0.00 72 1015.9
20260905154503 85 326 2.0 5.0 0.00 0.00 0.00 72 1015.9
20260905154003 85 11 1.0 5.0 0.00 0.00 0.00 71 1016.0
20260905153503 85 359 2.0 5.0 0.00 0.00 0.00 69 1016.0
20260905153003 84 359 2.0 4.0 0.00 0.00 0.00 70 1015.8
20260905152524 84 358 2.0 4.0 0.00 0.00 0.00 69 1015.8
20260905152003 84 350 2.0 4.0 0.00 0.00 0.00 69 1015.8
20260905151503 83 340 2.0 4.0 0.00 0.00 0.00 69 1015.9
20260905151003 83 336 2.0 4.0 0.00 0.00 0.00 67 1015.9
20260905150503 83 339 2.0 5.0 0.00 0.00 0.00 66 1015.9
20260905150003 83 339 2.0 5.0 0.00 0.00 0.00 66 1015.9
20260905145503 82 344 2.0 5.0 0.00 0.00 0.00 65 1015.8
20260905145003 82 346 2.0 4.0 0.00 0.00 0.00 61 1015.8
20260905144503 82 354 1.0 5.0 0.00 0.00 0.00 60 1015.8
20260905144025 81 359 1.0 5.0 0.00 0.00 0.00 55 1015.8
20260905143503 81 348 1.0 4.0 0.00 0.00 0.00 54 1015.8
20260905143003 81 349 1.0 4.0 0.00 0.00 0.00 53 1015.8
20260905142524 81 352 0.0 2.0 0.00 0.00 0.00 51 1015.8
20260905142003 80 355 0.0 2.0 0.00 0.00 0.00 48 1015.9
20260905141524 80 346 0.0 2.0 0.00 0.00 0.00 45 1015.7
20260905141003 80 340 0.0 2.0 0.00 0.00 0.00 44 1015.8
20260905140503 80 0 0.0 0.0 0.00 0.00 0.00 42 1015.8
20260905140004 81 0 0.0 0.0 0.00 0.00 0.00 40 1015.8
20260905135503 80 0 0.0 0.0 0.00 0.00 0.00 40 1015.8
20260905135003 80 0 0.0 0.0 0.00 0.00 0.00 39 1015.7
20260905134524 80 0 0.0 0.0 0.00 0.00 0.00 39 1015.7
20260905134003 80 0 0.0 0.0 0.00 0.00 0.00 39 1015.7
20260905133503 79 0 0.0 0.0 0.00 0.00 0.00 39 1015.6
20260905133003 79 0 0.0 0.0 0.00 0.00 0.00 39 1015.6
20260905132504 79 0 0.0 0.0 0.00 0.00 0.00 40 1015.6
20260905132003 79 0 0.0 0.0 0.00 0.00 0.00 40 1015.5
20260905131503 79 0 0.0 0.0 0.00 0.00 0.00 40 1015.5
20260905131003 78 0 0.0 0.0 0.00 0.00 0.00 40 1015.5
20260905130503 78 0 0.0 0.0 0.00 0.00 0.00 40 1015.4
20260905130003 78 0 0.0 0.0 0.00 0.00 0.00 40 1015.4
20260905125524 78 0 0.0 0.0 0.00 0.00 0.00 40 1015.4
20260905125003 77 0 0.0 0.0 0.00 0.00 0.00 40 1015.4
20260905124504 77 0 0.0 0.0 0.00 0.00 0.00 40 1015.4
20260905124003 77 0 0.0 0.0 0.00 0.00 0.00 40 1015.3
20260905123503 77 0 0.0 0.0 0.00 0.00 0.00 40 1015.2
20260905123024 77 0 0.0 0.0 0.00 0.00 0.00 40 1015.2
20260905122503 77 0 0.0 0.0 0.00 0.00 0.00 40 1015.2
20260905122005 77 0 0.0 0.0 0.00 0.00 0.00 40 1015.2
20260905121503 77 0 0.0 0.0 0.00 0.00 0.00 40 1015.1
20260905121003 77 0 0.0 0.0 0.00 0.00 0.00 40 1015.1
20260905120503 77 0 0.0 0.0 0.00 0.00 0.00 40 1015.0
20260905120004 77 0 0.0 0.0 0.00 0.00 0.00 40 1015.1
20260905115503 77 0 0.0 0.0 0.00 0.00 0.00 40 1015.0
20260905115003 77 0 0.0 0.0 0.00 0.00 0.00 40 1015.0
20260905114503 77 0 0.0 0.0 0.00 0.00 0.00 40 1015.0
20260905114004 77 0 0.0 0.0 0.00 0.00 0.00 40 1014.9
20260905113503 77 0 0.0 0.0 0.00 0.00 0.00 40 1014.9
20260905113003 77 0 0.0 0.0 0.00 0.00 0.00 40 1014.9
20260905112503 77 0 0.0 0.0 0.00 0.00 0.00 40 1014.8
20260905112003 77 0 0.0 0.0 0.00 0.00 0.00 40 1014.7
20260905111503 77 0 0.0 0.0 0.00 0.00 0.00 40 1014.7
20260905111003 77 0 0.0 0.0 0.00 0.00 0.00 40 1014.6
20260905110503 77 0 0.0 0.0 0.00 0.00 0.00 40 1014.8
20260905110004 78 0 0.0 0.0 0.00 0.00 0.00 40 1014.7
20260905105503 78 0 0.0 0.0 0.00 0.00 0.00 40 1014.7
20260905105003 78 0 0.0 0.0 0.00 0.00 0.00 40 1014.7
20260905104503 78 0 0.0 0.0 0.00 0.00 0.00 40 1014.7
20260905104003 78 0 0.0 0.0 0.00 0.00 0.00 40 1014.7
20260905103503 78 0 0.0 0.0 0.00 0.00 0.00 40 1014.6
20260905103003 78 0 0.0 0.0 0.00 0.00 0.00 40 1014.6
20260905102503 78 0 0.0 0.0 0.00 0.00 0.00 40 1014.6
20260905102003 78 0 0.0 0.0 0.00 0.00 0.00 40 1014.5
20260905101503 78 0 0.0 0.0 0.00 0.00 0.00 40 1014.5
20260905101003 78 0 0.0 0.0 0.00 0.00 0.00 40 1014.5
20260905100503 78 0 0.0 0.0 0.00 0.00 0.00 40 1014.4
20260905100003 78 0 0.0 0.0 0.00 0.00 0.00 40 1014.4
20260905095503 78 0 0.0 0.0 0.00 0.00 0.00 40 1014.3
20260905095003 78 0 0.0 0.0 0.00 0.00 0.00 40 1014.3
20260905094504 78 0 0.0 0.0 0.00 0.00 0.00 40 1014.2
20260905094024 78 0 0.0 0.0 0.00 0.00 0.00 40 1014.1
20260905093504 78 0 0.0 0.0 0.00 0.00 0.00 40 1014.2
20260905093024 78 0 0.0 0.0 0.00 0.00 0.00 40 1014.3
20260905092503 78 0 0.0 0.0 0.00 0.00 0.00 40 1014.4
20260905092003 78 0 0.0 0.0 0.00 0.00 0.00 40 1014.3
20260905091503 78 0 0.0 0.0 0.00 0.00 0.00 40 1014.2
20260905091004 78 0 0.0 0.0 0.00 0.00 0.00 40 1014.2
20260905090524 78 0 0.0 0.0 0.00 0.00 0.00 40 1014.2
20260905090003 78 0 0.0 0.0 0.00 0.00 0.00 40 1014.0
20260905085503 78 0 0.0 0.0 0.00 0.00 0.00 40 1014.0
20260905085003 78 0 0.0 0.0 0.00 0.00 0.00 40 1014.1
20260905084503 78 0 0.0 0.0 0.00 0.00 0.00 40 1014.1
20260905084005 78 0 0.0 0.0 0.00 0.00 0.00 40 1014.1
20260905083524 78 0 0.0 0.0 0.00 0.00 0.00 40 1014.1
20260905083003 78 0 0.0 0.0 0.00 0.00 0.00 40 1014.1
20260905082503 78 0 0.0 0.0 0.00 0.00 0.00 40 1014.2
20260905082005 78 0 0.0 0.0 0.00 0.00 0.00 40 1014.2
20260905081524 78 0 0.0 0.0 0.00 0.00 0.00 40 1014.3
20260905081003 78 0 0.0 0.0 0.00 0.00 0.00 40 1014.3
20260905080503 78 0 0.0 0.0 0.00 0.00 0.00 40 1014.4
20260905080003 78 0 0.0 0.0 0.00 0.00 0.00 40 1014.4
20260905075503 78 0 0.0 0.0 0.00 0.00 0.00 40 1014.3
20260905075025 78 0 0.0 0.0 0.00 0.00 0.00 40 1014.3
20260905074504 78 0 0.0 0.0 0.00 0.00 0.00 40 1014.4
20260905074025 78 0 0.0 0.0 0.00 0.00 0.00 40 1014.6
20260905073504 78 0 0.0 0.0 0.00 0.00 0.00 40 1014.5
20260905073004 78 0 0.0 0.0 0.00 0.00 0.00 40 1014.5
20260905072525 78 0 0.0 0.0 0.00 0.00 0.00 40 1014.5
20260905072004 78 0 0.0 0.0 0.00 0.00 0.00 40 1014.5
20260905071504 78 0 0.0 0.0 0.00 0.00 0.00 40 1014.5
20260905071004 78 0 0.0 0.0 0.00 0.00 0.00 40 1014.5
20260905070504 78 0 0.0 0.0 0.00 0.00 0.00 40 1014.5
20260905070004 78 0 0.0 0.0 0.00 0.00 0.00 40 1014.6
20260905065504 78 0 0.0 0.0 0.00 0.00 0.00 40 1014.6
20260905065004 78 0 0.0 0.0 0.00 0.00 0.00 40 1014.5
20260905064504 78 0 0.0 0.0 0.00 0.00 0.00 40 1014.5
20260905064025 78 0 0.0 0.0 0.00 0.00 0.00 40 1014.6
20260905063504 78 0 0.0 0.0 0.00 0.00 0.00 40 1014.5
20260905063004 78 0 0.0 0.0 0.00 0.00 0.00 40 1014.5
20260905062525 78 0 0.0 0.0 0.00 0.00 0.00 40 1014.6
20260905062004 78 0 0.0 0.0 0.00 0.00 0.00 40 1014.5
20260905061525 78 0 0.0 0.0 0.00 0.00 0.00 40 1014.4
20260905061004 78 0 0.0 0.0 0.00 0.00 0.00 40 1014.4
20260905060504 78 0 0.0 0.0 0.00 0.00 0.00 40 1014.4
20260905060004 78 0 0.0 0.0 0.00 0.00 0.00 40 1014.5
20260905055504 78 0 0.0 0.0 0.00 0.00 0.00 40 1014.5
20260905055004 78 0 0.0 0.0 0.00 0.00 0.00 40 1014.3
20260905054504 78 0 0.0 0.0 0.00 0.00 0.00 40 1014.2
20260905054004 78 0 0.0 0.0 0.00 0.00 0.00 40 1014.3
20260905053504 78 0 0.0 0.0 0.00 0.00 0.00 40 1014.3
20260905053004 78 0 0.0 0.0 0.00 0.00 0.00 40 1014.3
20260905052504 78 0 0.0 0.0 0.00 0.00 0.00 40 1014.3
20260905052025 78 0 0.0 0.0 0.00 0.00 0.00 40 1014.3
20260905051504 78 0 0.0 0.0 0.00 0.00 0.00 41 1014.3
20260905051004 78 0 0.0 0.0 0.00 0.00 0.00 41 1014.3
20260905050504 78 0 0.0 0.0 0.00 0.00 0.00 41 1014.6
20260905050004 78 0 0.0 0.0 0.00 0.00 0.00 41 1014.6
20260905045525 78 0 0.0 0.0 0.00 0.00 0.00 41 1014.6
20260905045025 78 0 0.0 0.0 0.00 0.00 0.00 41 1014.6
20260905044504 78 0 0.0 0.0 0.00 0.00 0.00 41 1014.6
20260905044004 78 0 0.0 0.0 0.00 0.00 0.00 42 1014.5
20260905043504 78 0 0.0 0.0 0.00 0.00 0.00 42 1014.5
20260905043004 78 0 0.0 0.0 0.00 0.00 0.00 42 1014.7
20260905042504 78 0 0.0 0.0 0.00 0.00 0.00 43 1014.7
20260905042025 78 0 0.0 0.0 0.00 0.00 0.00 43 1014.8
20260905041504 79 0 0.0 0.0 0.00 0.00 0.00 43 1014.8
20260905041004 79 0 0.0 0.0 0.00 0.00 0.00 43 1014.8
20260905040504 79 0 0.0 0.0 0.00 0.00 0.00 43 1015.0
20260905040004 79 0 0.0 0.0 0.00 0.00 0.00 44 1015.0
20260905035504 79 0 0.0 0.0 0.00 0.00 0.00 44 1014.9
20260905035004 79 0 0.0 0.0 0.00 0.00 0.00 45 1014.9
20260905034504 79 0 0.0 0.0 0.00 0.00 0.00 45 1014.9
20260905034004 79 0 0.0 0.0 0.00 0.00 0.00 46 1014.9
20260905033504 79 0 0.0 0.0 0.00 0.00 0.00 47 1014.9
20260905033004 79 0 0.0 0.0 0.00 0.00 0.00 47 1014.9
20260905032525 79 0 0.0 0.0 0.00 0.00 0.00 47 1014.9
20260905032004 80 0 0.0 0.0 0.00 0.00 0.00 49 1015.0
20260905031525 80 0 0.0 0.0 0.00 0.00 0.00 50 1014.9
20260905031004 80 0 0.0 0.0 0.00 0.00 0.00 50 1014.9
20260905030504 80 0 0.0 0.0 0.00 0.00 0.00 52 1014.9
20260905030004 80 0 0.0 0.0 0.00 0.00 0.00 53 1014.9
20260905025504 81 0 0.0 0.0 0.00 0.00 0.00 54 1014.8
20260905025004 81 0 0.0 0.0 0.00 0.00 0.00 56 1014.7
20260905024504 81 0 0.0 0.0 0.00 0.00 0.00 56 1014.8
20260905024004 81 0 0.0 0.0 0.00 0.00 0.00 57 1014.8
20260905023504 81 0 0.0 0.0 0.00 0.00 0.00 56 1014.7
20260905023004 81 0 0.0 0.0 0.00 0.00 0.00 56 1014.8
20260905022504 80 0 0.0 0.0 0.00 0.00 0.00 56 1014.7
20260905022004 80 0 0.0 0.0 0.00 0.00 0.00 54 1014.5
20260905021504 80 0 0.0 0.0 0.00 0.00 0.00 54 1014.5
20260905021006 80 0 0.0 0.0 0.00 0.00 0.00 55 1014.4
20260905020504 80 0 0.0 0.0 0.00 0.00 0.00 59 1014.3
20260905020004 80 0 0.0 0.0 0.00 0.00 0.00 58 1014.2
20260905015504 80 0 0.0 0.0 0.00 0.00 0.00 59 1014.1
20260905015004 81 0 0.0 0.0 0.00 0.00 0.00 61 1013.9
20260905014504 81 0 0.0 0.0 0.00 0.00 0.00 63 1013.7
20260905014004 82 0 0.0 0.0 0.00 0.00 0.00 65 1013.6
20260905013504 82 0 0.0 0.0 0.00 0.00 0.00 65 1013.5
20260905013004 82 0 0.0 0.0 0.00 0.00 0.00 67 1013.4
20260905012525 82 0 0.0 0.0 0.00 0.00 0.00 65 1013.5
20260905012004 82 0 0.0 0.0 0.00 0.00 0.00 64 1013.4
20260905011504 83 0 0.0 0.0 0.00 0.00 0.00 64 1013.4
20260905011004 83 0 0.0 0.0 0.00 0.00 0.00 68 1013.4
20260905010525 83 0 0.0 0.0 0.00 0.00 0.00 70 1013.4
20260905010004 83 0 0.0 0.0 0.00 0.00 0.00 69 1013.5
20260905005504 84 0 0.0 0.0 0.00 0.00 0.00 72 1013.5
20260905005004 84 0 0.0 0.0 0.00 0.00 0.00 72 1013.5
20260905004504 84 0 0.0 0.0 0.00 0.00 0.00 73 1013.5
20260905004004 84 0 0.0 0.0 0.00 0.00 0.00 73 1013.5
20260905003504 85 0 0.0 0.0 0.00 0.00 0.00 73 1013.5
20260905003004 85 0 0.0 0.0 0.00 0.00 0.00 74 1013.5
20260905002504 86 0 0.0 0.0 0.00 0.00 0.00 74 1013.4
20260905002004 86 0 0.0 0.0 0.00 0.00 0.00 75 1013.4
20260905001504 87 0 0.0 0.0 0.00 0.00 0.00 75 1013.4
20260905001004 88 0 0.0 0.0 0.00 0.00 0.00 75 1013.4
20260905000525 88 0 0.0 0.0 0.00 0.00 0.00 76 1013.4
20260905000004 89 0 0.0 0.0 0.00 0.00 0.00 77 1013.4
20260904235504 89 0 0.0 0.0 0.00 0.00 0.00 75 1013.3
20260904235004 90 0 0.0 0.0 0.00 0.00 0.00 76 1013.3
20260904234504 90 0 0.0 0.0 0.00 0.00 0.00 74 1013.4
20260904234004 90 0 0.0 0.0 0.00 0.00 0.00 74 1013.3
20260904233504 91 0 0.0 0.0 0.00 0.00 0.00 72 1013.3
20260904233004 91 0 0.0 0.0 0.00 0.00 0.00 72 1013.3
20260904232504 92 219 0.0 1.0 0.00 0.00 0.00 72 1013.2
20260904232004 92 215 0.0 1.0 0.00 0.00 0.00 68 1013.2
20260904231504 93 147 0.0 2.0 0.00 0.00 0.00 66 1013.2
20260904231004 94 160 0.0 2.0 0.00 0.00 0.00 61 1013.1
20260904230504 94 167 0.0 2.0 0.00 0.00 0.00 63 1013.1
20260904230004 94 146 1.0 3.0 0.00 0.00 0.00 61 1013.1
20260904225504 94 136 0.0 3.0 0.00 0.00 0.00 59 1013.1
20260904225004 94 152 0.0 1.0 0.00 0.00 0.00 60 1013.1
20260904224504 93 130 0.0 1.0 0.00 0.00 0.00 61 1013.1
20260904224004 93 99 0.0 2.0 0.00 0.00 0.00 62 1013.1
20260904223525 93 88 0.0 2.0 0.00 0.00 0.00 60 1013.0
20260904223004 92 88 1.0 2.0 0.00 0.00 0.00 65 1013.0
20260904222504 91 88 1.0 2.0 0.00 0.00 0.00 65 1013.0
20260904222004 91 90 0.0 1.0 0.00 0.00 0.00 72 1013.1
20260904221504 90 78 0.0 1.0 0.00 0.00 0.00 76 1013.1
20260904221025 90 44 0.0 2.0 0.00 0.00 0.00 74 1013.0
20260904220505 90 66 1.0 2.0 0.00 0.00 0.00 72 1013.0
20260904220004 91 74 1.0 4.0 0.00 0.00 0.00 70 1013.1
20260904215504 93 89 2.0 4.0 0.00 0.00 0.00 64 1013.2
20260904215004 94 81 2.0 4.0 0.00 0.00 0.00 62 1013.3
20260904214504 94 92 2.0 4.0 0.00 0.00 0.00 61 1013.5
20260904214004 95 144 2.0 6.0 0.00 0.00 0.00 56 1013.5
20260904213504 95 168 2.0 6.0 0.00 0.00 0.00 57 1013.5
20260904213004 94 161 3.0 6.0 0.00 0.00 0.00 59 1013.5
20260904212504 94 163 3.0 6.0 0.00 0.00 0.00 56 1013.5
20260904212004 95 171 2.0 5.0 0.00 0.00 0.00 57 1013.5
20260904211504 95 171 2.0 5.0 0.00 0.00 0.00 58 1013.6
20260904211025 95 178 2.0 5.0 0.00 0.00 0.00 58 1013.7
20260904210504 94 173 3.0 7.0 0.00 0.00 0.00 59 1013.7
20260904210025 94 166 3.0 7.0 0.00 0.00 0.00 62 1013.6
20260904205504 94 167 3.0 8.0 0.00 0.00 0.00 62 1013.7
20260904205004 95 170 3.0 8.0 0.00 0.00 0.00 61 1013.7
20260904204504 95 170 2.0 7.0 0.00 0.00 0.00 58 1013.7
20260904204004 95 178 2.0 6.0 0.00 0.00 0.00 58 1013.9
20260904203504 95 176 2.0 6.0 0.00 0.00 0.00 59 1013.9
20260904203004 95 204 2.0 6.0 0.00 0.00 0.00 59 1013.9
20260904202525 95 210 2.0 6.0 0.00 0.00 0.00 58 1013.9
20260904202004 94 160 2.0 7.0 0.00 0.00 0.00 59 1014.1
20260904201504 95 160 2.0 7.0 0.00 0.00 0.00 58 1014.2
20260904201004 94 167 1.0 5.0 0.00 0.00 0.00 58 1014.2
20260904200504 94 134 2.0 6.0 0.00 0.00 0.00 59 1014.3
20260904200004 94 129 2.0 8.0 0.00 0.00 0.00 61 1014.5
20260904195504 95 169 2.0 8.0 0.00 0.00 0.00 59 1014.6
20260904195004 95 130 2.0 7.0 0.00 0.00 0.00 63 1014.7
20260904194504 95 130 2.0 6.0 0.00 0.00 0.00 60 1014.7
20260904194004 95 158 2.0 6.0 0.00 0.00 0.00 60 1014.8
20260904193503 94 197 1.0 4.0 0.00 0.00 0.00 62 1014.8
20260904193004 94 248 1.0 4.0 0.00 0.00 0.00 62 1014.9
20260904192504 94 97 1.0 3.0 0.00 0.00 0.00 63 1014.8
20260904192004 94 151 2.0 6.0 0.00 0.00 0.00 61 1014.9
20260904191504 93 166 3.0 7.0 0.00 0.00 0.00 63 1014.9
20260904191025 94 162 3.0 7.0 0.00 0.00 0.00 62 1015.0
20260904190504 94 153 2.0 4.0 0.00 0.00 0.00 66 1015.1
20260904190004 94 165 1.0 4.0 0.00 0.00 0.00 61 1015.2
20260904185504 94 32 1.0 4.0 0.00 0.00 0.00 64 1015.2
20260904185004 93 348 2.0 5.0 0.00 0.00 0.00 64 1015.3
20260904184504 92 350 3.0 5.0 0.00 0.00 0.00 63 1015.4
20260904184003 93 16 2.0 5.0 0.00 0.00 0.00 60 1015.5
20260904183504 93 157 2.0 6.0 0.00 0.00 0.00 62 1015.6
20260904183004 92 177 2.0 6.0 0.00 0.00 0.00 59 1015.5
20260904182525 92 176 2.0 5.0 0.00 0.00 0.00 62 1015.6
20260904182003 92 174 2.0 5.0 0.00 0.00 0.00 60 1015.7
20260904181503 92 41 2.0 5.0 0.00 0.00 0.00 62 1015.8
20260904181025 92 83 2.0 5.0 0.00 0.00 0.00 61 1015.9
20260904180504 92 58 2.0 5.0 0.00 0.00 0.00 63 1015.9
20260904180025 92 349 2.0 5.0 0.00 0.00 0.00 63 1015.9
20260904175504 92 30 2.0 5.0 0.00 0.00 0.00 63 1016.1
20260904175004 92 73 2.0 5.0 0.00 0.00 0.00 64 1016.0
20260904174503 92 114 1.0 4.0 0.00 0.00 0.00 67 1016.1
20260904174025 91 95 1.0 4.0 0.00 0.00 0.00 70 1016.3
20260904173504 91 133 2.0 5.0 0.00 0.00 0.00 69 1016.3
20260904173004 90 196 2.0 5.0 0.00 0.00 0.00 70 1016.3
20260904172503 90 160 1.0 3.0 0.00 0.00 0.00 70 1016.3
20260904172004 89 144 0.0 3.0 0.00 0.00 0.00 71 1016.5
20260904171503 89 150 0.0 5.0 0.00 0.00 0.00 72 1016.5
20260904171004 89 173 0.0 5.0 0.00 0.00 0.00 72 1016.7
20260904170503 89 200 0.0 4.0 0.00 0.00 0.00 72 1016.7
20260904170004 88 205 0.0 4.0 0.00 0.00 0.00 73 1016.9
20260904165503 88 223 1.0 2.0 0.00 0.00 0.00 74 1016.8
20260904165003 87 228 1.0 3.0 0.00 0.00 0.00 73 1017.0
20260904164504 88 246 2.0 4.0 0.00 0.00 0.00 74 1017.1
20260904164004 88 244 2.0 4.0 0.00 0.00 0.00 73 1017.1
20260904163504 88 233 2.0 4.0 0.00 0.00 0.00 74 1017.1
20260904163003 88 242 1.0 3.0 0.00 0.00 0.00 75 1017.2
20260904162503 88 250 1.0 3.0 0.00 0.00 0.00 74 1017.2
20260904162003 87 203 2.0 6.0 0.00 0.00 0.00 75 1017.2
20260904161504 88 192 2.0 6.0 0.00 0.00 0.00 74 1017.2